Wind_Speed
24 23 22 21 19 14 10 6 2 2 4 7 8 10 12 14 15 15 15 14 12 11 10 10 11 11 11 11 11 12 13 13 13 13 13 13 13 13 14 14 14 14 14 14 14 15 15 15 15
27 26 25 25 23 18 14 7 1 3 6 10 11 11 12 14 14 14 14 13 11 10 9 9 9 10 10 10 10 11 12 12 12 12 11 11 11 11 12 12 12 13 13 13 13 14 14 15 15
30 29 29 28 26 22 18 11 3 1 7 11 13 13 13 12 12 12 12 10 9 8 8 8 8 8 9 9 9 10 10 10 10 9 9 9 9 10 10 11 11 11 12 12 12 13 14 14 15
32 33 32 31 29 25 21 15 7 3 7 11 13 15 13 11 9 10 8 7 7 6 6 7 7 7 8 8 9 9 8 8 7 6 6 6 7 8 8 9 10 10 11 11 12 12 13 14 15
33 35 35 34 30 27 23 16 10 5 8 13 13 15 13 10 8 7 6 5 6 6 6 6 6 6 6 6 6 6 5 4 3 3 3 4 4 6 7 8 8 9 10 11 11 12 13 14 15
32 36 36 34 32 28 23 17 11 8 10 14 15 15 13 10 7 7 5 5 4 5 5 4 4 4 4 4 3 2 2 1 0 1 1 2 3 4 5 6 7 8 9 10 11 12 12 14 15
28 33 34 34 35 32 25 19 12 9 11 15 16 15 13 9 7 6 5 4 4 4 4 4 4 3 3 3 3 3 3 3 3 3 3 3 3 3 4 5 6 7 8 9 10 11 13 14 15
26 30 32 35 37 34 27 22 16 13 14 17 18 17 14 10 6 5 5 4 4 4 4 4 4 4 5 5 5 6 6 5 5 4 3 3 2 3 3 5 6 7 9 10 11 12 14 15 16
25 26 27 32 37 34 30 26 20 18 18 19 20 19 16 10 6 5 5 4 4 4 4 5 5 6 6 6 7 7 7 6 5 4 3 2 2 2 3 4 6 8 10 10 11 12 14 15 17
23 20 20 28 35 36 34 30 24 22 21 21 22 21 17 12 8 7 6 6 6 5 6 5 5 6 5 6 6 6 6 5 4 3 3 2 2 3 4 5 7 9 11 11 12 13 14 16 18
19 16 21 29 34 38 38 33 28 25 24 23 22 21 18 15 12 10 9 8 8 7 6 5 4 4 4 5 5 5 5 5 4 3 3 3 3 4 5 7 9 11 12 13 14 15 16 17 19
18 17 22 27 33 37 37 35 32 28 26 24 23 21 20 19 15 13 12 10 9 7 6 5 3 3 3 3 4 3 3 3 3 3 3 3 4 5 6 7 9 11 13 14 15 15 16 18 20
18 18 21 27 31 34 34 33 32 29 28 27 24 22 19 18 17 16 13 12 10 9 7 5 3 2 1 1 1 1 2 3 3 3 3 3 4 5 6 8 10 12 13 14 15 15 16 18 19
20 21 23 27 29 30 31 31 32 29 29 28 24 21 19 18 16 15 14 13 12 10 8 5 4 3 3 3 3 3 4 4 4 4 5 5 5 6 8 10 11 12 13 15 15 16 17 17 18
25 24 24 25 27 26 26 28 29 29 29 27 25 22 19 17 17 15 15 15 13 12 10 8 6 5 5 5 6 7 7 7 8 7 8 9 9 10 11 12 13 13 14 15 15 15 16 17 18
26 24 22 22 23 23 23 23 27 31 30 27 25 23 20 19 19 18 16 15 13 12 11 10 9 7 7 8 9 10 10 10 11 12 12 13 14 14 14 15 16 16 17 17 17 16 16 17 17
26 23 20 20 19 19 20 19 25 31 32 29 26 25 23 21 20 20 17 16 15 13 14 12 12 10 11 12 13 13 14 14 15 16 15 17 18 18 18 19 19 20 20 20 20 19 19 19 19
24 22 20 20 18 17 17 18 23 29 31 30 27 26 25 23 21 20 19 17 16 15 14 14 14 14 15 16 17 18 19 20 20 21 21 21 22 22 22 23 24 25 25 24 23 22 21 21 21
25 23 22 20 19 17 17 20 23 27 30 30 28 26 25 23 22 22 21 20 19 19 17 17 18 17 18 20 22 24 25 25 26 26 26 26 27 27 26 27 28 28 29 28 26 25 24 23 23
26 24 22 21 19 18 20 23 23 25 28 28 28 27 26 25 24 23 23 23 22 21 19 20 20 21 22 24 26 28 30 30 31 31 31 31 31 31 31 31 31 31 31 30 28 27 27 27 26
28 25 23 22 21 21 23 24 24 25 27 28 28 27 26 26 26 26 26 25 24 24 23 23 23 24 26 28 30 32 33 35 35 35 34 34 35 35 35 34 34 33 33 31 30 30 29 29 29
29 28 26 24 23 23 24 24 25 26 27 28 28 27 26 27 28 28 28 28 29 28 29 29 29 30 31 33 35 36 37 37 37 38 38 37 38 38 37 37 36 35 34 34 33 32 32 32 32
29 29 28 27 27 26 25 25 25 26 28 29 29 29 29 29 29 29 30 31 32 32 33 33 34 34 35 37 38 39 39 40 40 39 40 40 40 38 39 38 37 37 37 35 34 34 35 35 36
29 29 29 29 29 29 26 25 25 27 29 31 32 31 31 31 31 32 33 34 35 36 36 37 38 38 39 40 40 41 40 41 40 40 40 41 40 40 40 40 39 38 37 36 36 38 39 39 40
27 28 29 30 30 29 27 27 27 28 30 33 34 34 34 34 34 34 35 37 38 38 39 40 40 41 41 41 42 41 41 41 41 41 41 42 41 41 42 41 40 39 39 39 40 41 42 43 44
25 26 27 28 30 29 29 30 29 27 30 33 36 37 37 36 36 37 38 39 40 41 42 43 43 43 43 42 43 43 42 41 41 42 42 41 41 42 42 42 41 42 43 43 44 45 46 47 48
21 23 24 26 27 27 30 31 30 29 29 31 34 37 38 38 38 39 40 41 43 44 44 45 45 44 44 43 43 43 42 42 42 43 43 43 45 44 44 45 45 45 46 48 49 50 50 51 53
19 21 22 24 24 27 29 30 30 28 27 29 30 33 36 37 39 41 42 43 44 45 46 46 46 44 43 43 43 42 43 43 43 43 44 45 46 47 47 48 48 50 51 53 54 55 56 56 57
18 20 22 22 23 26 29 31 32 30 28 29 31 33 33 35 36 38 41 43 44 45 44 44 43 42 42 42 42 42 43 44 45 47 48 49 51 51 52 53 54 55 57 58 59 59 59 60 60
18 19 21 23 24 26 30 34 34 33 31 31 31 32 34 35 36 37 38 39 40 41 41 42 42 41 41 41 42 43 45 46 48 50 52 53 54 56 57 58 58 59 61 62 62 62 62 62 62
Wind_Direction
207 200 193 187 184 189 205 206 180 333 318 305 313 310 303 301 301 296 288 281 275 267 257 249 243 240 239 239 241 246 251 255 260 264 268 273 278 282 286 287 288 289 289 290 290 290 291 291 290
209 205 199 192 190 194 205 202 110 356 312 299 299 298 296 293 291 285 278 273 266 259 251 243 237 237 236 238 242 247 251 255 258 262 267 273 279 284 288 290 291 292 293 294 295 296 297 296 295
212 208 202 196 193 199 207 203 159 335 295 294 297 298 298 295 286 274 269 262 252 246 241 234 231 232 234 237 243 247 250 252 256 260 267 275 282 288 291 293 295 297 298 298 299 300 300 299 298
214 211 206 199 195 201 210 209 187 200 277 284 293 300 299 293 286 271 265 253 240 232 228 228 228 229 233 237 241 244 246 249 253 260 269 280 290 296 299 301 302 303 303 302 302 302 302 301 300
217 214 209 201 195 202 210 210 196 202 261 274 284 292 295 295 295 277 262 245 229 221 221 223 223 223 226 227 229 233 236 239 247 264 282 296 305 309 311 311 311 312 312 312 310 309 307 305 302
222 219 212 202 195 200 206 208 202 206 242 264 275 283 286 289 288 272 251 229 215 207 204 202 202 203 203 201 198 190 178 171 138 5 352 345 340 335 330 326 323 323 323 321 318 314 311 307 303
228 224 215 204 198 199 203 204 202 225 248 262 267 272 273 274 275 260 238 214 200 185 176 168 162 157 149 140 130 115 98 84 75 65 51 36 20 3 349 340 335 332 330 325 321 317 314 309 304
232 227 216 206 200 198 201 205 207 224 245 258 262 265 266 268 258 250 233 209 191 174 164 153 139 127 118 109 100 95 88 81 77 73 68 56 34 11 358 348 338 331 327 322 319 318 317 312 307
238 232 220 208 202 198 202 207 210 219 234 250 260 262 261 259 238 237 230 196 170 157 150 144 127 114 105 95 88 86 85 81 78 74 67 53 32 18 2 347 336 332 328 323 318 316 315 312 307
243 236 217 206 202 200 205 209 212 219 230 242 253 259 255 254 237 218 211 192 167 157 142 134 122 111 101 91 85 82 80 77 76 71 58 43 22 1 344 341 337 334 331 325 318 313 311 310 305
241 226 208 201 199 200 206 210 214 222 229 238 246 249 245 244 238 207 193 191 179 166 151 140 129 109 95 86 83 79 74 69 60 50 38 20 358 348 346 347 345 339 333 327 320 312 308 306 304
231 216 206 199 198 200 205 210 213 219 225 233 238 239 239 236 228 208 195 191 190 179 166 159 148 131 102 81 75 68 54 46 39 31 21 5 354 351 349 347 342 337 336 332 327 319 311 309 306
222 213 202 199 201 202 204 208 213 217 223 227 233 237 235 232 225 216 202 195 199 198 188 177 177 178 148 76 42 21 352 348 357 355 345 342 336 338 337 338 335 335 337 336 333 327 321 317 314
214 211 203 201 202 204 205 208 212 214 220 225 230 232 232 233 232 227 221 212 204 203 208 205 213 246 265 283 306 312 311 317 324 328 323 315 317 314 318 321 327 331 335 337 336 333 330 324 320
213 212 208 205 205 207 210 211 214 212 218 222 227 231 231 233 237 236 228 221 214 210 213 226 233 250 271 285 293 297 302 306 308 307 307 304 302 302 309 314 318 323 329 332 331 329 327 324 322
216 215 211 208 207 210 214 211 213 212 218 220 225 230 235 238 238 234 235 232 227 223 219 226 234 247 266 280 285 290 294 298 298 298 298 297 297 298 302 306 310 314 318 323 323 322 322 319 319
218 215 209 206 205 210 215 208 209 209 213 216 222 228 236 242 241 243 244 246 242 236 229 230 240 250 262 272 279 285 289 291 292 291 293 292 293 295 298 300 304 308 312 315 316 316 314 313 312
218 212 204 199 197 204 207 200 198 203 209 212 220 227 235 243 246 250 252 256 248 245 244 242 253 261 268 275 282 286 288 290 290 288 289 290 290 290 293 296 300 304 307 308 310 310 308 307 306
212 209 202 197 198 198 188 183 186 194 203 210 219 227 235 243 247 250 255 258 257 255 254 257 259 266 273 280 284 287 289 290 290 288 286 287 288 288 290 293 296 298 300 300 302 304 303 302 300
207 203 199 198 200 193 182 178 184 193 202 211 220 230 237 242 247 252 257 260 262 265 266 268 267 269 273 279 283 286 288 290 290 291 288 286 287 286 287 289 290 293 295 296 299 300 299 298 296
206 201 194 194 195 192 188 188 189 199 209 216 223 231 239 245 251 255 257 260 267 270 271 273 272 274 274 278 281 283 286 288 288 290 289 287 286 285 285 284 287 290 292 295 297 299 297 295 293
205 199 195 195 197 195 199 200 200 207 215 223 229 234 240 247 252 257 260 266 269 271 274 276 277 275 276 277 278 280 283 284 284 286 286 286 285 283 283 283 287 288 289 293 295 295 295 294 291
205 201 201 201 203 204 207 207 207 215 220 226 231 237 242 248 254 259 262 265 268 271 274 276 277 275 274 276 277 279 280 281 281 282 283 284 283 284 286 288 288 286 290 292 292 292 292 291 290
207 206 207 209 210 210 215 220 216 220 225 229 233 237 243 248 252 256 260 263 268 271 273 274 275 275 275 276 277 277 279 280 281 282 281 282 283 284 286 287 288 289 291 291 291 291 291 291 290
211 212 214 215 218 216 217 227 226 223 228 233 236 239 243 246 251 255 259 261 264 267 269 272 274 276 277 277 277 276 277 278 279 280 281 282 282 283 284 285 287 289 289 289 290 291 291 290 290
214 217 219 222 223 223 223 230 232 230 233 236 238 241 243 246 250 253 257 260 263 265 268 271 273 275 276 275 275 275 275 276 276 277 280 282 282 284 283 286 286 288 287 288 290 291 290 290 290
212 217 221 226 226 224 225 233 237 237 237 238 239 241 244 247 250 252 255 258 262 265 268 270 273 274 274 274 274 273 273 274 275 277 278 280 282 284 284 286 288 288 288 289 290 290 289 289 289
214 216 219 224 224 224 225 232 237 238 239 239 242 244 244 248 251 252 254 257 260 263 266 268 270 271 272 272 272 271 272 274 276 277 279 282 283 284 285 286 287 287 288 289 290 290 290 289 289
209 214 219 222 225 226 226 232 238 242 245 248 250 254 256 256 256 255 254 256 259 262 264 266 266 267 268 269 269 270 272 274 276 278 281 282 282 283 285 286 287 287 288 289 290 290 290 289 289
210 218 222 223 226 230 232 235 238 245 251 256 258 260 263 262 262 261 260 261 262 263 263 263 264 265 265 266 268 270 272 274 276 278 279 281 282 283 285 285 286 287 288 289 289 288 288 289 289
Height
5892 5895 5898 5901 5902 5902 5901 5901 5900 5900 5900 5900 5902 5903 5904 5904 5905 5907 5904 5902 5902 5903 5903 5903 5904 5905 5906 5907 5908 5908 5909 5909 5910 5910 5910 5910 5910 5910 5909 5909 5908 5908 5907 5906 5906 5905 5904 5904 5903
5888 5892 5895 5898 5899 5899 5900 5899 5898 5899 5899 5899 5900 5902 5903 5903 5902 5902 5900 5900 5900 5901 5901 5902 5903 5904 5905 5906 5907 5907 5908 5908 5908 5909 5909 5909 5909 5909 5908 5908 5907 5907 5906 5906 5905 5904 5903 5903 5902
5884 5887 5891 5894 5896 5897 5898 5897 5897 5898 5899 5898 5898 5900 5901 5901 5901 5899 5899 5898 5899 5899 5900 5901 5902 5903 5904 5905 5906 5906 5907 5907 5908 5908 5908 5908 5908 5908 5908 5907 5907 5906 5906 5905 5904 5903 5902 5901 5901
5879 5882 5886 5890 5893 5895 5896 5897 5896 5897 5898 5897 5897 5898 5899 5900 5899 5897 5897 5897 5897 5898 5899 5900 5901 5902 5903 5904 5905 5906 5906 5907 5907 5907 5908 5908 5908 5907 5907 5907 5906 5906 5905 5904 5904 5903 5901 5900 5899
5874 5877 5880 5885 5890 5892 5894 5894 5894 5895 5896 5896 5896 5896 5897 5898 5897 5896 5896 5896 5897 5897 5899 5900 5901 5902 5903 5904 5904 5905 5906 5906 5907 5907 5907 5907 5907 5907 5906 5906 5905 5905 5904 5903 5903 5902 5900 5899 5897
5869 5871 5876 5882 5887 5889 5891 5892 5892 5894 5894 5894 5896 5896 5896 5897 5896 5895 5895 5896 5896 5897 5898 5899 5900 5901 5903 5904 5904 5905 5906 5906 5906 5906 5907 5906 5906 5906 5905 5905 5904 5904 5903 5902 5901 5900 5898 5897 5895
5865 5867 5871 5878 5883 5886 5889 5889 5890 5891 5891 5892 5894 5894 5894 5896 5896 5894 5894 5895 5896 5897 5898 5899 5901 5902 5903 5904 5904 5905 5905 5906 5906 5906 5906 5906 5905 5905 5904 5904 5903 5902 5901 5900 5899 5898 5896 5894 5892
5859 5862 5867 5872 5877 5882 5886 5886 5886 5888 5889 5890 5891 5892 5893 5894 5895 5894 5894 5895 5896 5897 5898 5900 5901 5902 5903 5904 5904 5904 5905 5905 5905 5905 5905 5905 5904 5904 5903 5903 5902 5901 5899 5898 5897 5895 5893 5892 5890
5854 5858 5862 5868 5873 5880 5882 5882 5883 5884 5886 5888 5889 5891 5892 5893 5894 5894 5894 5895 5896 5898 5899 5900 5901 5902 5903 5904 5904 5904 5904 5904 5904 5904 5904 5904 5903 5903 5902 5901 5900 5899 5897 5895 5894 5892 5890 5888 5886
5851 5854 5860 5865 5870 5875 5877 5878 5879 5880 5883 5884 5886 5888 5889 5891 5892 5894 5894 5895 5896 5898 5899 5900 5901 5902 5903 5903 5903 5903 5904 5904 5904 5903 5903 5903 5902 5901 5900 5900 5898 5896 5895 5892 5890 5889 5887 5885 5882
5848 5851 5855 5858 5864 5869 5871 5874 5875 5877 5880 5881 5884 5886 5887 5889 5890 5892 5893 5894 5896 5897 5899 5900 5901 5902 5902 5902 5902 5902 5903 5903 5902 5902 5902 5901 5900 5899 5899 5898 5896 5894 5892 5890 5887 5885 5883 5881 5878
5846 5847 5850 5854 5858 5862 5866 5869 5871 5873 5876 5878 5881 5883 5885 5886 5889 5891 5892 5893 5895 5896 5897 5898 5900 5900 5901 5901 5901 5901 5901 5901 5901 5901 5900 5899 5898 5897 5896 5895 5894 5892 5889 5887 5884 5882 5879 5877 5874
5842 5844 5847 5850 5853 5857 5861 5864 5867 5870 5872 5874 5877 5880 5882 5884 5886 5889 5891 5892 5893 5894 5895 5897 5898 5899 5899 5899 5899 5899 5899 5899 5899 5899 5898 5897 5897 5896 5894 5893 5891 5889 5886 5884 5881 5878 5876 5873 5870
5839 5841 5843 5846 5849 5853 5857 5860 5862 5866 5869 5871 5873 5877 5879 5882 5883 5885 5888 5890 5891 5892 5894 5894 5895 5896 5897 5897 5897 5897 5897 5897 5896 5896 5896 5895 5894 5893 5892 5890 5888 5886 5884 5881 5878 5875 5873 5870 5867
5834 5837 5841 5843 5846 5849 5853 5857 5860 5863 5865 5868 5871 5874 5877 5878 5880 5882 5885 5888 5889 5890 5891 5892 5893 5893 5894 5894 5894 5894 5894 5893 5893 5893 5892 5891 5891 5890 5889 5887 5885 5883 5881 5878 5876 5873 5870 5868 5865
5831 5835 5839 5842 5844 5847 5851 5854 5858 5860 5861 5865 5868 5870 5873 5875 5876 5879 5882 5884 5886 5887 5888 5889 5890 5891 5891 5891 5891 5891 5891 5890 5890 5889 5888 5887 5886 5885 5884 5882 5881 5879 5877 5875 5872 5870 5867 5865 5862
5828 5833 5836 5839 5842 5844 5847 5850 5853 5855 5858 5861 5864 5866 5869 5871 5873 5875 5878 5880 5882 5883 5884 5886 5887 5887 5887 5887 5888 5887 5887 5886 5886 5885 5884 5883 5881 5880 5878 5877 5875 5873 5871 5870 5868 5866 5863 5861 5858
5826 5829 5832 5835 5837 5839 5842 5845 5849 5852 5854 5857 5859 5862 5864 5867 5870 5872 5874 5876 5877 5878 5880 5882 5883 5882 5882 5882 5882 5882 5881 5881 5881 5879 5878 5877 5875 5873 5872 5871 5869 5867 5866 5864 5862 5860 5858 5856 5854
5821 5825 5828 5831 5832 5835 5838 5841 5845 5848 5851 5853 5855 5858 5860 5863 5866 5869 5870 5872 5872 5873 5874 5876 5877 5877 5877 5876 5875 5875 5874 5874 5873 5872 5871 5869 5868 5866 5865 5864 5863 5861 5859 5857 5856 5854 5852 5850 5848
5816 5821 5824 5827 5829 5833 5835 5838 5842 5844 5847 5850 5852 5854 5857 5860 5862 5865 5867 5868 5868 5869 5870 5871 5872 5872 5871 5870 5869 5868 5867 5866 5865 5864 5863 5861 5859 5858 5857 5856 5855 5853 5852 5850 5849 5847 5846 5844 5842
5813 5817 5820 5823 5826 5829 5833 5835 5839 5842 5843 5846 5848 5851 5853 5855 5858 5860 5861 5863 5864 5865 5866 5866 5867 5865 5864 5864 5862 5861 5860 5858 5857 5856 5855 5853 5852 5851 5849 5848 5847 5845 5844 5843 5841 5840 5838 5836 5835
5809 5814 5816 5819 5822 5825 5829 5832 5836 5838 5841 5843 5845 5847 5849 5851 5853 5854 5855 5857 5858 5859 5860 5861 5861 5860 5859 5858 5856 5854 5853 5851 5849 5848 5846 5845 5843 5841 5840 5838 5838 5837 5836 5834 5833 5831 5830 5828 5826
5806 5809 5813 5816 5818 5822 5825 5829 5834 5835 5837 5839 5841 5843 5845 5846 5848 5848 5849 5851 5851 5852 5852 5853 5853 5852 5851 5850 5848 5847 5845 5843 5841 5840 5838 5836 5834 5832 5832 5830 5829 5828 5826 5825 5824 5822 5821 5819 5817
5802 5806 5810 5813 5816 5820 5823 5825 5830 5832 5833 5834 5836 5837 5839 5840 5842 5843 5844 5844 5844 5844 5845 5845 5845 5844 5843 5842 5840 5838 5836 5834 5832 5831 5830 5828 5826 5825 5823 5821 5820 5819 5817 5815 5814 5813 5811 5809 5806
5798 5803 5807 5810 5813 5817 5820 5820 5824 5826 5828 5829 5830 5831 5833 5834 5835 5836 5837 5838 5838 5838 5838 5837 5836 5835 5834 5833 5831 5829 5828 5827 5824 5822 5821 5819 5818 5816 5814 5812 5811 5809 5808 5806 5804 5802 5800 5798 5795
5795 5799 5803 5806 5809 5812 5815 5815 5818 5821 5822 5823 5824 5825 5826 5826 5828 5828 5829 5829 5830 5830 5829 5829 5828 5827 5826 5825 5823 5821 5819 5818 5816 5814 5812 5810 5808 5806 5804 5802 5801 5800 5798 5796 5793 5791 5788 5786 5783
5791 5794 5798 5801 5804 5807 5810 5810 5812 5814 5815 5816 5816 5817 5818 5819 5819 5820 5820 5821 5820 5820 5820 5819 5819 5817 5816 5815 5814 5812 5810 5809 5807 5804 5803 5801 5799 5797 5794 5793 5791 5789 5787 5784 5782 5779 5776 5773 5770
5788 5790 5793 5796 5799 5801 5804 5805 5806 5807 5807 5808 5808 5808 5809 5809 5810 5810 5810 5810 5811 5811 5810 5810 5809 5808 5806 5805 5804 5803 5801 5799 5797 5794 5793 5791 5789 5787 5785 5783 5780 5778 5775 5772 5769 5766 5763 5760 5756
5784 5786 5788 5791 5794 5796 5798 5801 5798 5800 5800 5800 5799 5799 5798 5799 5799 5799 5800 5800 5800 5800 5800 5799 5798 5797 5797 5796 5794 5793 5792 5790 5788 5785 5783 5781 5779 5777 5774 5771 5768 5765 5762 5759 5756 5752 5749 5745 5741
5780 5782 5784 5787 5788 5790 5792 5794 5792 5793 5793 5792 5791 5791 5791 5791 5790 5790 5790 5790 5791 5790 5789 5788 5788 5787 5787 5786 5785 5784 5782 5780 5778 5776 5773 5770 5767 5765 5762 5759 5755 5752 5748 5745 5741 5737 5734 5730 5726